[Iaude] MPEC K13: 2019 EG7 [a=44.01,e=0.08,i=1.7,H=7.1]

mpec at cfa.harvard.edu mpec at cfa.harvard.edu
Fri May 17 15:24:13 EDT 2024


M.P.E.C. 2024-K13                                  Issued 2024 May 17, 19:21 UT

     The Minor Planet Electronic Circulars contain information on unusual
         minor planets, routine data on comets and natural satellites,
         and occasional editorial announcements.  They are published
    on behalf of Division F of the International Astronomical Union by the
          Minor Planet Center, Smithsonian Astrophysical Observatory,
                          Cambridge, MA 02138, U.S.A.
			  
             Prepared using the Tamkin Foundation Computer Network

                              MPC at CFA.HARVARD.EDU
            URL https://www.minorplanetcenter.net/    ISSN 1523-6714

                                    2019 EG7                                    


Observations:
     K19E07G 4C2018 03 18.45971 11 44 18.54 +03 05 56.4          23.5 i1EK013T09
     K19E07G 4C2018 03 18.46308 11 44 18.53 +03 05 56.6          23.4 i1EK013T09
     K19E07G 4C2018 03 18.50571 11 44 18.37 +03 05 57.9          23.8 i1EK013T09
     K19E07G 4C2018 03 18.56269 11 44 18.11 +03 05 59.1          23.4 i1EK013T09
     K19E07G 4C2018 04 24.35538 11 42 02.78 +03 20 03.4          24.0 z1EK013T09
     K19E07G 4C2018 04 24.44523 11 42 02.51 +03 20 05.1          23.8 z1EK013T09
     K19E07G 4C2018 04 24.48536 11 42 02.38 +03 20 05.6          23.4 z1EK013T09
     K19E07G 4C2018 04 24.48803 11 42 02.39 +03 20 05.8          23.4 z1EK013T09
     K19E07G 4C2019 03 02.51880 11 49 19.64 +02 31 54.1          23.2 y1EK013T09
     K19E07G 4C2019 03 02.55921 11 49 19.48 +02 31 55.3          23.1 y1EK013T09
     K19E07G 4C2019 03 02.60017 11 49 19.31 +02 31 56.1          23.1 y1EK013T09
     K19E07G*4C2019 03 08.36022 11 48 56.68 +02 34 24.2          24.0 r1EK013T09
     K19E07G 4C2019 03 08.40431 11 48 56.50 +02 34 25.4          23.8 r1EK013T09
     K19E07G 4C2019 03 08.43394 11 48 56.38 +02 34 25.9          24.1 r1EK013T09

Observer details:
T09 Subaru Telescope, Maunakea.  Observers H. Aihara, Y. AlSayyad, M. Ando, R.
    Armstrong, J. Bosch, E. Egami, H. Furusawa, J. Furusawa, S. Harasawa, Y.
    Harikane, B.-C. Hsieh, H. Ikeda, K. Ito, I. Iwata, T. Kodama, M. Koike, M.
    Kokubo, Y. Komiyama, X. Li, Y. Liang, Y.-T. Lin, R. H. Lupton, N. B. Lust,
    L. A. MacArthur, K. Mawatari, S. Mineo, H. Miyatake, S. Miyazaki, S. More,
    T. Morishima, H. Murayama, K. Nakajima, F. Nakata, A. J. Nishizawa, M.
    Oguri, N. Okabe, Y. Okura, Y. Ono, K. Osato, M. Ouchi, Y.-C. Pan, A. A.
    Plazas Malagon, P. A. Price, S. L. Reed, E. S. Rykoff, T. Shibuya, M.
    Simunovic, M. A. Strauss, K. Sugimori, Y. Suto, N. Suzuki, M. Takada, Y.
    Takagi, T. Takata, S. Takita, M. Tanaka, S. Tang, D. S. Taranu, T. Terai,
    Y. Toba, E. L. Turner, H. Uchiyama, B. Vijarnwannaluk, C. Z. Waters, Y.
    Yamada, N. Yamamoto, T. Yamashita.  Measurers H. Karasaki, H. Fukuyama, A.
    Yamauchi.  8.2-m f/2.0 reflector + CCD(HSC).

Orbital elements:
2019 EG7                                                                        
Epoch 2024 Mar. 31.0 TT = JDT 2460400.5                 Alexandersen            
M 198.56514              (2000.0)            P               Q                  
n   0.00337544     Peri.  304.35555     +0.96874892     +0.24722606             
a  44.0131831      Node    41.34125     -0.21640059     +0.88202417             
e   0.0800361      Incl.    1.74545     -0.12122834     +0.40113917             
P 292              H    7.12          G   0.15           U   8                  
Residuals in seconds of arc
180318 T09  0.0   0.1-    180424 T09  0.0   0.0     190302 T09  0.1-  0.1-
180318 T09  0.0   0.0     180424 T09  0.1-  0.2-    190308 T09  0.0   0.1+
180318 T09  0.2+  0.2+    180424 T09  0.2+  0.0     190308 T09  0.0   0.1+
180318 T09  0.1-  0.0     190302 T09  0.0   0.1-    190308 T09  0.0   0.1-
180424 T09  0.1-  0.0     190302 T09  0.1+  0.1+

Ephemeris:
2019 EG7                 a,e,i = 44.01, 0.08, 2                  q = 40.4905
Date    TT    R. A. (2000) Decl.     Delta      r    Elong.  Phase     V
2024 04 17    12 05 56.3 +00 35 42  46.4732 47.3772   154.0     0.5    23.9
...
2024 05 02    12 05 07.2 +00 40 44  46.6095 47.3763   139.1     0.8    24.0
...
2024 05 10    12 04 45.6 +00 42 53  46.7034 47.3759   131.3     0.9    24.0
...
2024 05 16    12 04 31.9 +00 44 13  46.7820 47.3755   125.4     1.0    24.0
2024 05 17    12 04 29.8 +00 44 25  46.7957 47.3755   124.5     1.0    24.0
2024 05 18    12 04 27.8 +00 44 37  46.8096 47.3754   123.5     1.0    24.0
...
2024 05 24    12 04 17.2 +00 45 36  46.8961 47.3751   117.7     1.1    24.0
...
2024 06 01    12 04 07.0 +00 46 29  47.0188 47.3746   110.0     1.2    24.0
...
2024 06 16    12 04 00.5 +00 46 44  47.2640 47.3738    95.6     1.2    24.0

M. P. C. Staff               (C) Copyright 2024 MPC           M.P.E.C. 2024-K13





More information about the Iaude mailing list